Location: Brantley
(31.5822°N, 86.2569°W)
Time: 02:27:27
(UTC+00:00)

Vanguard 3 - Pass Details

Date: 20 February 2026
Orbit: 507 x 3205 km, 33.4° (Epoch: 13 March)

Event Time Altitude Azimuth Distance (km) Brightness Sun altitude
Rises 16:51:11 0° 199° (SSW) 7,138 12.4 44.7°
Reaches altitude 10° 16:58:11 10° 185° (S) 5,991 12.4 45.3°
Maximum altitude 17:09:45 21° 145° (SE) 4,587 12.2 46.1°
Drops below altitude 10° 17:18:56 10° 104° (ESE) 4,697 11.4 46.6°
Sets 17:23:20 0° 89° (E) 5,258 11.4 46.8°
